This demonstration page uses our WeatherBlox Daily Observations layout. Learn more.

Left ArrowRight Arrow

Hourly Observations for November 23, 2020

Temp ( °F °C ) Dew Point ( °F °C ) Humidity (%) Winds ( mph kmh ) Pressure ( in mb ) Visibility ( mi km ) Precip ( " mm )
12:52 am 00:52 Clear 30 -1.1 25 -3.9 82 82 Calm 30.35 1028 10 16 0.00 0.00
1:52 am 01:52 Clear 27 -2.8 24 -4.4 89 89 Calm 30.34 1028 10 16 0.00 0.00
2:20 am 02:20 Mostly Clear with Patchy Fog 27 -2.8 25 -3.9 92 92 Calm 30.39 1029 7 11 0.00 0.00
2:52 am 02:52 Mostly Clear with Patchy Fog 26 -3.3 25 -3.9 96 96 Calm 30.35 1028 7 11 0.00 0.00
3:52 am 03:52 Clear 27 -2.8 25 -3.9 92 92 SE 5 7 30.35 1028 10 16 0.00 0.00
4:52 am 04:52 Partly Cloudy 28 -2.2 24 -4.4 85 85 SSE 5 7 30.33 1027 10 16 0.00 0.00
5:52 am 05:52 Partly Cloudy 29 -1.7 26 -3.3 89 89 SSE 3 6 30.32 1027 10 16 0.00 0.00
6:52 am 06:52 Cloudy 29 -1.7 27 -2.8 92 92 S 6 9 30.33 1027 10 16 0.00 0.00
7:52 am 07:52 Cloudy 30 -1.1 27 -2.8 88 88 SE 5 7 30.32 1027 10 16 0.00 0.00
8:52 am 08:52 Cloudy 35 1.7 27 -2.8 72 72 SSE 9 15 30.32 1027 10 16 0.00 0.00
9:52 am 09:52 Cloudy with Light Snow 37 2.8 30 -1.1 76 76 S 10 17 30.31 1026 9 14 0.00 0.00
10:48 am 10:48 Cloudy with Light Snow 37 3 28 -2 70 70 S 14 22 30.33 1027 3 5 0.00 0.00
10:52 am 10:52 Cloudy with Light Snow 37 2.8 29 -1.7 73 73 SSE 17 28 30.31 1027 3 5 0.00 0.00
11:01 am 11:01 Cloudy with Light Snow 37 2.8 30 -1.1 76 76 S 15 24 30.32 1027 2 3 0.01 0.25
11:13 am 11:13 Cloudy with Light Snow 37 2.8 30 -1.1 76 76 SSE 15 24 30.32 1027 2 3 0.02 0.51
11:52 am 11:52 Cloudy with Light Snow 35 1.7 30 -1.1 82 82 SSE 13 20 30.29 1026 2 3 0.06 1.52
12:52 pm 12:52 Cloudy with Light Rain/Snow 36 2.2 32 0 86 86 SSE 12 19 30.25 1024 2 3 0.05 1.27
1:47 pm 13:47 Cloudy with Light Rain 36 2 32 0 87 87 SSE 12 19 30.23 1024 2 3 0.06 1.52
1:52 pm 13:52 Cloudy with Light Rain 36 2.2 32 0 86 86 SSE 15 24 30.22 1023 2 3 0.06 1.52
1:54 pm 13:54 Cloudy with Light Rain 36 2.2 33 0.6 89 89 SSE 13 20 30.23 1024 2 3 0.00 0.00
2:52 pm 14:52 Cloudy with Light Rain 37 2.8 33 0.6 86 86 SE 14 22 30.17 1022 2 3 0.00 0.00
3:39 pm 15:39 Cloudy 38 3.3 34 1.1 86 86 SSE 15 24 30.19 1022 10 16 0.00 0.00
3:52 pm 15:52 Cloudy 38 3.3 34 1.1 86 86 SSE 17 28 30.16 1021 10 16 0.00 0.00
4:52 pm 16:52 Cloudy 37 2.8 34 1.1 89 89 SE 20 31 30.13 1020 10 16 0.00 0.00
5:32 pm 17:32 Cloudy 36 2.2 32 0 86 86 SE 15 24 30.12 1020 10 16 0.00 0.00
5:52 pm 17:52 Cloudy 36 2.2 32 0 86 86 SE 16 26 30.10 1019 10 16 0.00 0.00
6:52 pm 18:52 Cloudy with Light Snow 37 2.8 32 0 82 82 SSE 16 26 30.10 1019 9 14 0.00 0.00
7:03 pm 19:03 Cloudy with Light Rain/Snow 37 2.8 32 0 82 82 SE 16 26 30.11 1020 9 14 0.00 0.00
7:52 pm 19:52 Cloudy 37 2.8 32 0 82 82 SSE 16 26 30.08 1019 10 16 0.00 0.00
8:52 pm 20:52 Cloudy 37 2.8 32 0 82 82 SSE 20 31 30.06 1018 10 16 0.00 0.00
9:24 pm 21:24 Cloudy 37 2.8 32 0 82 82 SE 17 28 30.07 1018 10 16 0.00 0.00
9:52 pm 21:52 Cloudy 37 2.8 32 0 82 82 SE 14 22 30.04 1017 10 16 0.00 0.00
10:52 pm 22:52 Cloudy 37 2.8 31 -0.6 79 79 SE 15 24 30.03 1017 10 16 0.00 0.00
11:44 pm 23:44 Cloudy with Drizzle 37 2.8 31 -0.6 79 79 SE 17 28 30.03 1017 4 6 0.00 0.00
11:52 pm 23:52 Cloudy with Drizzle 37 2.8 32 0 82 82 SE 17 28 30.00 1016 4 6 0.00 0.00

Powered by AerisWeather